Weather History for Fort Indiantown Gap, PA

Change the Weather History Date:

Thursday, January 24, 2013

  Actual Average Record
Temperature  
Mean Temperature 18 °F -  
Max Temperature 24 °F 33 °F 51 °F (2002)
Min Temperature 11 °F 21 °F -2 °F (2011)
Degree Days  
Heating Degree Days 48    
Moisture  
Dew Point 1 °F    
Average Humidity 50    
Maximum Humidity 77    
Minimum Humidity 30    
Precipitation  
Precipitation 0.00 in - - ()
Sea Level Pressure  
Sea Level Pressure 30.33 in    
Wind  
Wind Speed 5 mph (NW)    
Max Wind Speed 16 mph    
Max Gust Speed 25 mph    
Visibility 10 miles    
Events Snow    
Averages and records for this station are not official NWS values.
T = Trace of Precipitation, MM = Missing Value Source: NWS Daily Summary

Daily Weather History Graph

Daily Weather History Graph

Search for Another Location

Airport:

Trip Planner

Search our weather history database for the weather conditions in past years. The results will help you decide how hot, cold, wet, or windy it might be!

Date:

Astronomy

Jan. 24, 2013 Rise Set
Actual Time 7:22 AM EST 5:15 PM EST
Civil Twilight 6:52 AM EST 5:44 PM EST
Nautical Twilight 6:19 AM EST 6:17 PM EST
Astronomical Twilight 5:47 AM EST 6:49 PM EST
Moon 3:15 PM EST (1/24) 5:18 AM EST (1/24)
Length of Visible Light 10h 51m
Length of Day
9h 52m
Waxing Gibbous, 94% of the Moon is Illuminated
Jan 24
Waxing Gibbous
Jan 26
Full
Feb 3
Last Quarter
Feb 10
New
Feb 17
First Quarter

Hourly Weather History & Observations

Time (EST) Temp. Windchill Dew Point Humidity Pressure Visibility Wind Dir Wind Speed Gust Speed Precip Events Conditions
12:55 AM 11.8 °F - 5.0 °F 74% 30.15 in 10.0 mi Calm Calm - N/A   Scattered Clouds
1:55 AM 12.2 °F - 6.3 °F 77% 30.14 in 10.0 mi Calm Calm - N/A   Scattered Clouds
2:55 AM 13.1 °F - 4.8 °F 70% 30.14 in 10.0 mi Calm Calm - N/A   Clear
3:55 AM 14.2 °F - 4.1 °F 64% 30.15 in 10.0 mi Calm Calm - N/A   Clear
4:55 AM 14.9 °F - 1.0 °F 54% 30.17 in 10.0 mi Calm Calm - N/A   Clear
5:55 AM 14.4 °F - 2.1 °F 58% 30.19 in 10.0 mi Calm Calm - N/A   Clear
6:55 AM 13.6 °F 6.0 °F 4.5 °F 67% 30.22 in 10.0 mi NW 4.6 mph - N/A   Clear
7:55 AM 13.5 °F - 5.4 °F 70% 30.25 in 10.0 mi Calm Calm - N/A   Clear
8:55 AM 15.4 °F 4.6 °F 5.9 °F 66% 30.28 in 10.0 mi West 8.1 mph - N/A   Clear
9:06 AM 15.8 °F 6.1 °F 6.8 °F 68% 30.29 in 7.0 mi WNW 6.9 mph - N/A Snow Light Snow
9:34 AM 17.6 °F 10.7 °F 6.8 °F 63% 30.30 in 7.0 mi Variable 4.6 mph - N/A Snow Light Snow
9:47 AM 17.6 °F 7.3 °F 6.8 °F 63% 30.31 in 9.0 mi NW 8.1 mph - N/A Snow Light Snow
9:55 AM 16.9 °F 7.4 °F 6.1 °F 63% 30.32 in 10.0 mi WNW 6.9 mph 18.4 mph 0.00 in Snow Light Snow
10:23 AM 17.6 °F 8.2 °F 5.0 °F 58% 30.32 in 10.0 mi NNW 6.9 mph - N/A Snow Light Snow
10:55 AM 19.0 °F 6.8 °F 5.7 °F 56% 30.34 in 9.0 mi North 11.5 mph 19.6 mph 0.00 in Snow Light Snow
11:17 AM 19.4 °F 11.5 °F 5.0 °F 54% 30.34 in 10.0 mi NW 5.8 mph 21.9 mph N/A   Partly Cloudy
11:55 AM 19.6 °F 7.4 °F 1.9 °F 46% 30.35 in 10.0 mi NW 11.5 mph 19.6 mph 0.00 in   Partly Cloudy
12:55 PM 22.5 °F 14.1 °F -0.0 °F 38% 30.35 in 10.0 mi WNW 6.9 mph 24.2 mph N/A   Partly Cloudy
1:08 PM 23.0 °F 9.6 °F -2.2 °F 33% 30.35 in 10.0 mi West 16.1 mph 23.0 mph N/A   Partly Cloudy
1:17 PM 23.0 °F 13.1 °F -2.2 °F 33% 30.35 in 10.0 mi NNW 9.2 mph 21.9 mph N/A   Partly Cloudy
1:34 PM 23.0 °F 9.6 °F -2.2 °F 33% 30.35 in 10.0 mi North 16.1 mph 24.2 mph N/A   Scattered Clouds
1:55 PM 23.4 °F 14.3 °F -4.0 °F 30% 30.35 in 10.0 mi North 8.1 mph 25.3 mph 0.00 in   Partly Cloudy
1:57 PM 23.0 °F 10.6 °F -4.0 °F 31% 30.35 in 10.0 mi North 13.8 mph 25.3 mph N/A   Partly Cloudy
2:55 PM 23.2 °F 14.1 °F -1.5 °F 34% 30.36 in 10.0 mi NW 8.1 mph 23.0 mph 0.00 in   Scattered Clouds
3:55 PM 24.1 °F 18.2 °F -1.8 °F 32% 30.39 in 10.0 mi Variable 4.6 mph - N/A   Partly Cloudy
4:55 PM 22.8 °F 15.5 °F -2.9 °F 32% 30.41 in 10.0 mi Variable 5.8 mph - 0.00 in   Partly Cloudy
5:55 PM 21.7 °F 10.8 °F -1.8 °F 36% 30.44 in 10.0 mi WNW 10.4 mph - N/A   Clear
6:55 PM 21.0 °F 13.4 °F -1.8 °F 37% 30.46 in 10.0 mi West 5.8 mph - N/A   Clear
7:55 PM 20.1 °F 10.3 °F -1.8 °F 38% 30.48 in 10.0 mi WNW 8.1 mph - N/A   Clear
8:55 PM 19.8 °F 10.8 °F -2.2 °F 38% 30.48 in 10.0 mi Variable 6.9 mph - N/A   Clear
9:55 PM 18.7 °F 7.8 °F -2.0 °F 40% 30.49 in 10.0 mi WNW 9.2 mph 17.3 mph N/A   Clear
10:55 PM 17.6 °F 4.3 °F -3.1 °F 40% 30.49 in 10.0 mi NNW 12.7 mph 19.6 mph N/A   Clear
11:55 PM 16.0 °F 5.3 °F -2.7 °F 44% 30.50 in 10.0 mi NNW 8.1 mph - N/A   Clear